| time (UTC) | temp F | wind direction | speed MPH | gust MPH | rain 1hr in | rain 24hr in | rain mn in | humidity % | barometer mb |
| 20260506144502 | 71 | 130 | 0.0 | 2.0 | 0.02 | 0.03 | 0.03 | 96 | 1012.3 |
| 20260506144006 | 71 | 146 | 0.0 | 3.0 | 0.02 | 0.03 | 0.03 | 96 | 1012.3 |
| 20260506143504 | 71 | 113 | 2.0 | 3.0 | 0.02 | 0.03 | 0.03 | 96 | 1012.3 |
| 20260506143008 | 71 | 106 | 2.0 | 2.0 | 0.02 | 0.03 | 0.03 | 96 | 1012.3 |
| 20260506142505 | 71 | 126 | 0.0 | 2.0 | 0.02 | 0.03 | 0.03 | 96 | 1012.3 |
| 20260506142005 | 71 | 149 | 0.0 | 3.0 | 0.02 | 0.03 | 0.03 | 96 | 1012.3 |
| 20260506141511 | 71 | 112 | 1.0 | 3.0 | 0.03 | 0.03 | 0.03 | 96 | 1012.2 |
| 20260506141006 | 71 | 99 | 0.0 | 2.0 | 0.02 | 0.02 | 0.02 | 96 | 1012.3 |
| 20260506140504 | 71 | 102 | 0.0 | 1.0 | 0.02 | 0.02 | 0.02 | 96 | 1012.3 |
| 20260506140022 | 71 | 127 | 0.0 | 1.0 | 0.02 | 0.02 | 0.02 | 96 | 1012.3 |
| 20260506135507 | 71 | 127 | 0.0 | 2.0 | 0.02 | 0.02 | 0.02 | 96 | 1012.1 |
| 20260506135006 | 70 | 127 | 0.0 | 2.0 | 0.01 | 0.01 | 0.01 | 96 | 1012.1 |
| 20260506134522 | 71 | 6 | 0.0 | 2.0 | 0.01 | 0.01 | 0.01 | 96 | 1012.0 |
| 20260506134010 | 70 | 6 | 0.0 | 2.0 | 0.01 | 0.01 | 0.01 | 96 | 1011.8 |
| 20260506133507 | 70 | 134 | 0.0 | 2.0 | 0.01 | 0.01 | 0.01 | 96 | 1011.3 |
| 20260506133004 | 70 | 95 | 1.0 | 2.0 | 0.01 | 0.01 | 0.01 | 96 | 1010.9 |
| 20260506132501 | 70 | 124 | 0.0 | 4.0 | 0.01 | 0.01 | 0.01 | 96 | 1010.7 |
| 20260506132003 | 70 | 125 | 1.0 | 4.0 | 0.01 | 0.01 | 0.01 | 96 | 1010.7 |
| 20260506131516 | 70 | 109 | 1.0 | 2.0 | 0.00 | 0.00 | 0.00 | 96 | 1010.8 |
| 20260506131006 | 70 | 158 | 0.0 | 0.0 | 0.00 | 0.00 | 0.00 | 96 | 1010.7 |
| 20260506130503 | 70 | 158 | 0.0 | 0.0 | 0.00 | 0.00 | 0.00 | 96 | 1010.7 |
| 20260506130016 | 70 | 158 | 0.0 | 1.0 | 0.00 | 0.00 | 0.00 | 96 | 1010.7 |
| 20260506125505 | 70 | 158 | 0.0 | 2.0 | 0.00 | 0.00 | 0.00 | 96 | 1010.7 |
| 20260506125007 | 70 | 158 | 0.0 | 2.0 | 0.00 | 0.00 | 0.00 | 96 | 1010.7 |
| 20260506124519 | 70 | 238 | 0.0 | 2.0 | 0.00 | 0.00 | 0.00 | 96 | 1010.6 |
| 20260506124007 | 70 | 210 | 0.0 | 2.0 | 0.00 | 0.00 | 0.00 | 96 | 1010.6 |
| 20260506123507 | 70 | 157 | 1.0 | 3.0 | 0.00 | 0.00 | 0.00 | 96 | 1010.4 |
| 20260506123023 | 70 | 110 | 1.0 | 3.0 | 0.00 | 0.00 | 0.00 | 96 | 1010.3 |
| 20260506122507 | 70 | 135 | 1.0 | 4.0 | 0.00 | 0.00 | 0.00 | 96 | 1010.3 |
| 20260506122011 | 70 | 174 | 1.0 | 4.0 | 0.00 | 0.00 | 0.00 | 96 | 1010.3 |
| 20260506121504 | 70 | 155 | 0.0 | 3.0 | 0.00 | 0.00 | 0.00 | 96 | 1010.2 |
| 20260506121004 | 70 | 191 | 0.0 | 4.0 | 0.00 | 0.00 | 0.00 | 96 | 1010.2 |
| 20260506120503 | 70 | 154 | 1.0 | 4.0 | 0.00 | 0.00 | 0.00 | 96 | 1010.2 |
| 20260506120018 | 70 | 146 | 0.0 | 3.0 | 0.00 | 0.00 | 0.00 | 96 | 1010.2 |
| 20260506115503 | 70 | 146 | 0.0 | 3.0 | 0.00 | 0.00 | 0.00 | 96 | 1010.2 |
| 20260506115006 | 70 | 140 | 1.0 | 3.0 | 0.00 | 0.00 | 0.00 | 96 | 1010.2 |
| 20260506114515 | 70 | 184 | 0.0 | 3.0 | 0.00 | 0.00 | 0.00 | 95 | 1010.3 |
| 20260506114007 | 70 | 188 | 0.0 | 3.0 | 0.00 | 0.00 | 0.00 | 95 | 1010.4 |
| 20260506113508 | 70 | 148 | 1.0 | 2.0 | 0.00 | 0.00 | 0.00 | 95 | 1010.4 |
| 20260506113024 | 70 | 244 | 0.0 | 4.0 | 0.00 | 0.00 | 0.00 | 95 | 1010.4 |
| 20260506112509 | 70 | 165 | 1.0 | 4.0 | 0.00 | 0.00 | 0.00 | 95 | 1010.3 |
| 20260506112008 | 70 | 226 | 1.0 | 4.0 | 0.00 | 0.00 | 0.00 | 95 | 1010.3 |
| 20260506111526 | 70 | 160 | 1.0 | 3.0 | 0.00 | 0.00 | 0.00 | 95 | 1010.4 |
| 20260506111007 | 70 | 169 | 1.0 | 4.0 | 0.00 | 0.00 | 0.00 | 95 | 1010.4 |
| 20260506110513 | 70 | 162 | 1.0 | 5.0 | 0.00 | 0.00 | 0.00 | 95 | 1010.4 |
| 20260506110012 | 70 | 167 | 2.0 | 6.0 | 0.00 | 0.00 | 0.00 | 95 | 1010.2 |
| 20260506105503 | 70 | 205 | 1.0 | 7.0 | 0.00 | 0.00 | 0.00 | 95 | 1010.2 |
| 20260506105007 | 70 | 160 | 3.0 | 7.0 | 0.00 | 0.00 | 0.00 | 95 | 1010.4 |
| 20260506104512 | 70 | 238 | 2.0 | 6.0 | 0.00 | 0.00 | 0.00 | 95 | 1010.5 |
| 20260506104007 | 70 | 244 | 0.0 | 5.0 | 0.00 | 0.00 | 0.00 | 95 | 1010.7 |
| 20260506103506 | 70 | 178 | 2.0 | 5.0 | 0.00 | 0.00 | 0.00 | 95 | 1010.7 |
| 20260506103018 | 70 | 199 | 2.0 | 5.0 | 0.00 | 0.00 | 0.00 | 95 | 1010.6 |
| 20260506102508 | 70 | 238 | 1.0 | 5.0 | 0.00 | 0.00 | 0.00 | 95 | 1010.6 |
| 20260506102009 | 70 | 170 | 1.0 | 4.0 | 0.00 | 0.00 | 0.00 | 95 | 1010.6 |
| 20260506101528 | 70 | 295 | 0.0 | 6.0 | 0.00 | 0.00 | 0.00 | 95 | 1010.5 |
| 20260506101010 | 70 | 146 | 2.0 | 6.0 | 0.00 | 0.00 | 0.00 | 95 | 1010.4 |
| 20260506100507 | 70 | 133 | 1.0 | 6.0 | 0.00 | 0.00 | 0.00 | 95 | 1010.3 |
| 20260506100031 | 71 | 240 | 1.0 | 6.0 | 0.00 | 0.00 | 0.00 | 95 | 1010.2 |
| 20260506095507 | 71 | 211 | 1.0 | 5.0 | 0.00 | 0.00 | 0.00 | 95 | 1010.2 |
| 20260506095011 | 71 | 234 | 0.0 | 4.0 | 0.00 | 0.00 | 0.00 | 95 | 1010.2 |
| 20260506094508 | 71 | 247 | 2.0 | 6.0 | 0.00 | 0.00 | 0.00 | 95 | 1010.2 |
| 20260506094003 | 71 | 157 | 1.0 | 6.0 | 0.00 | 0.00 | 0.00 | 95 | 1010.3 |
| 20260506093507 | 71 | 231 | 1.0 | 9.0 | 0.00 | 0.00 | 0.00 | 95 | 1010.2 |
| 20260506093018 | 71 | 212 | 2.0 | 9.0 | 0.00 | 0.00 | 0.00 | 95 | 1010.2 |
| 20260506092509 | 71 | 103 | 3.0 | 9.0 | 0.00 | 0.00 | 0.00 | 95 | 1010.2 |
| 20260506092007 | 71 | 122 | 1.0 | 5.0 | 0.00 | 0.00 | 0.00 | 95 | 1010.1 |
| 20260506091519 | 71 | 141 | 1.0 | 5.0 | 0.00 | 0.00 | 0.00 | 95 | 1010.1 |
| 20260506091007 | 71 | 246 | 1.0 | 6.0 | 0.00 | 0.00 | 0.00 | 94 | 1010.1 |
| 20260506090506 | 71 | 110 | 2.0 | 7.0 | 0.00 | 0.00 | 0.00 | 94 | 1010.1 |
| 20260506090021 | 71 | 195 | 2.0 | 7.0 | 0.00 | 0.00 | 0.00 | 94 | 1010.0 |
| 20260506085507 | 71 | 110 | 2.0 | 8.0 | 0.00 | 0.00 | 0.00 | 94 | 1009.9 |
| 20260506085007 | 71 | 145 | 4.0 | 8.0 | 0.00 | 0.00 | 0.00 | 94 | 1009.8 |
| 20260506084535 | 71 | 41 | 3.0 | 8.0 | 0.00 | 0.00 | 0.00 | 94 | 1009.7 |
| 20260506084010 | 71 | 120 | 3.0 | 6.0 | 0.00 | 0.00 | 0.00 | 94 | 1009.7 |
| 20260506083514 | 71 | 155 | 1.0 | 6.0 | 0.00 | 0.00 | 0.00 | 94 | 1009.8 |
| 20260506083013 | 71 | 164 | 3.0 | 6.0 | 0.00 | 0.00 | 0.00 | 94 | 1009.8 |
| 20260506082505 | 71 | 175 | 3.0 | 8.0 | 0.00 | 0.00 | 0.00 | 93 | 1009.7 |
| 20260506082003 | 71 | 223 | 3.0 | 8.0 | 0.00 | 0.00 | 0.00 | 93 | 1009.7 |
| 20260506081517 | 71 | 166 | 2.0 | 7.0 | 0.00 | 0.00 | 0.00 | 93 | 1009.8 |
| 20260506081010 | 71 | 188 | 2.0 | 7.0 | 0.00 | 0.00 | 0.00 | 93 | 1009.8 |
| 20260506080508 | 72 | 143 | 2.0 | 6.0 | 0.00 | 0.00 | 0.00 | 93 | 1009.9 |
| 20260506073511 | 72 | 50 | 3.0 | 7.0 | 0.00 | 0.00 | 0.00 | 92 | 1010.0 |
| 20260506073026 | 72 | 111 | 3.0 | 9.0 | 0.00 | 0.00 | 0.00 | 92 | 1010.1 |
| 20260506072512 | 72 | 154 | 3.0 | 9.0 | 0.00 | 0.00 | 0.00 | 92 | 1010.2 |
| 20260506072012 | 72 | 145 | 3.0 | 8.0 | 0.00 | 0.00 | 0.00 | 92 | 1010.2 |
| 20260506071514 | 72 | 120 | 2.0 | 8.0 | 0.00 | 0.00 | 0.00 | 92 | 1010.2 |
| 20260506071007 | 72 | 65 | 3.0 | 9.0 | 0.00 | 0.00 | 0.00 | 92 | 1010.2 |
| 20260506070506 | 72 | 145 | 3.0 | 9.0 | 0.00 | 0.00 | 0.00 | 92 | 1010.2 |
| 20260506062509 | 73 | 174 | 2.0 | 9.0 | 0.00 | 0.00 | 0.00 | 92 | 1010.5 |
| 20260506062012 | 73 | 221 | 2.0 | 9.0 | 0.00 | 0.00 | 0.00 | 92 | 1010.4 |
| 20260506061529 | 73 | 185 | 3.0 | 7.0 | 0.00 | 0.00 | 0.00 | 92 | 1010.4 |
| 20260506061011 | 73 | 131 | 3.0 | 6.0 | 0.00 | 0.00 | 0.00 | 92 | 1010.3 |
| 20260506060510 | 73 | 162 | 2.0 | 6.0 | 0.00 | 0.00 | 0.00 | 92 | 1010.3 |
| 20260506051011 | 73 | 156 | 2.0 | 6.0 | 0.00 | 0.00 | 0.00 | 91 | 1010.3 |
| 20260506050515 | 73 | 139 | 2.0 | 6.0 | 0.00 | 0.00 | 0.00 | 91 | 1010.4 |
| 20260506045013 | 73 | 121 | 0.0 | 3.0 | 0.00 | 0.00 | 0.00 | 90 | 1010.5 |
| 20260506044519 | 73 | 252 | 0.0 | 2.0 | 0.00 | 0.00 | 0.00 | 90 | 1010.5 |
| 20260506044007 | 72 | 87 | 0.0 | 2.0 | 0.00 | 0.00 | 0.00 | 90 | 1010.6 |
| 20260506043509 | 72 | 85 | 0.0 | 2.0 | 0.00 | 0.00 | 0.00 | 90 | 1010.6 |
| 20260506043024 | 72 | 142 | 0.0 | 2.0 | 0.00 | 0.00 | 0.00 | 90 | 1010.5 |
| 20260506042506 | 72 | 185 | 0.0 | 2.0 | 0.00 | 0.00 | 0.00 | 89 | 1010.5 |
| 20260506042010 | 72 | 94 | 0.0 | 2.0 | 0.00 | 0.00 | 0.00 | 89 | 1010.5 |
| 20260506041525 | 73 | 108 | 0.0 | 2.0 | 0.00 | 0.00 | 0.00 | 89 | 1010.3 |
| 20260506041009 | 73 | 122 | 0.0 | 2.0 | 0.00 | 0.00 | 0.00 | 88 | 1010.3 |
| 20260506040509 | 73 | 136 | 0.0 | 2.0 | 0.00 | 0.00 | 0.00 | 88 | 1010.2 |
| 20260506040036 | 73 | 117 | 0.0 | 2.0 | 0.00 | 0.00 | 0.00 | 87 | 1010.1 |
| 20260506035509 | 73 | 147 | 0.0 | 2.0 | 0.00 | 0.00 | 0.00 | 87 | 1010.2 |
| 20260506035010 | 73 | 181 | 0.0 | 2.0 | 0.00 | 0.00 | 0.00 | 87 | 1010.2 |
| 20260506034529 | 73 | 143 | 0.0 | 2.0 | 0.00 | 0.00 | 0.00 | 87 | 1010.1 |
| 20260506034011 | 73 | 129 | 0.0 | 2.0 | 0.00 | 0.00 | 0.00 | 86 | 1010.1 |
| 20260506033509 | 73 | 111 | 0.0 | 1.0 | 0.00 | 0.00 | 0.00 | 85 | 1010.1 |
| 20260506033020 | 74 | 111 | 0.0 | 2.0 | 0.00 | 0.00 | 0.00 | 85 | 1010.0 |
| 20260506032505 | 74 | 110 | 0.0 | 2.0 | 0.00 | 0.00 | 0.00 | 85 | 1009.9 |
| 20260506032007 | 74 | 113 | 0.0 | 4.0 | 0.00 | 0.00 | 0.00 | 84 | 1009.8 |
| 20260506031524 | 74 | 120 | 0.0 | 4.0 | 0.00 | 0.00 | 0.00 | 84 | 1009.9 |
| 20260506031007 | 74 | 116 | 0.0 | 1.0 | 0.00 | 0.00 | 0.00 | 84 | 1009.7 |
| 20260506030513 | 74 | 111 | 0.0 | 1.0 | 0.00 | 0.00 | 0.00 | 83 | 1009.7 |
| 20260506030026 | 74 | 85 | 0.0 | 1.0 | 0.00 | 0.00 | 0.00 | 83 | 1009.7 |
| 20260506025506 | 74 | 56 | 0.0 | 1.0 | 0.00 | 0.00 | 0.00 | 82 | 1009.6 |
| 20260506025010 | 75 | 56 | 0.0 | 2.0 | 0.00 | 0.00 | 0.00 | 82 | 1009.4 |
| 20260506024530 | 75 | 128 | 1.0 | 2.0 | 0.00 | 0.00 | 0.00 | 82 | 1009.4 |
| 20260506024011 | 75 | 142 | 0.0 | 2.0 | 0.00 | 0.00 | 0.00 | 81 | 1009.4 |
| 20260506023508 | 75 | 123 | 0.0 | 1.0 | 0.00 | 0.00 | 0.00 | 81 | 1009.4 |
| 20260506023031 | 75 | 275 | 0.0 | 1.0 | 0.00 | 0.00 | 0.00 | 80 | 1009.3 |
| 20260506022509 | 76 | 110 | 0.0 | 2.0 | 0.00 | 0.00 | 0.00 | 80 | 1009.1 |
| 20260506022012 | 76 | 147 | 0.0 | 3.0 | 0.00 | 0.00 | 0.00 | 80 | 1009.0 |
| 20260506021531 | 76 | 140 | 1.0 | 3.0 | 0.00 | 0.00 | 0.00 | 80 | 1009.0 |
| 20260506021008 | 76 | 143 | 0.0 | 2.0 | 0.00 | 0.00 | 0.00 | 80 | 1008.9 |
| 20260506020507 | 75 | 172 | 1.0 | 2.0 | 0.00 | 0.00 | 0.00 | 80 | 1008.8 |
| 20260506020031 | 75 | 115 | 0.0 | 2.0 | 0.00 | 0.00 | 0.00 | 79 | 1008.7 |
| 20260506015510 | 76 | 199 | 0.0 | 2.0 | 0.00 | 0.00 | 0.00 | 79 | 1008.5 |
| 20260506015014 | 76 | 97 | 0.0 | 1.0 | 0.00 | 0.00 | 0.00 | 79 | 1008.5 |
| 20260506014526 | 76 | 223 | 0.0 | 3.0 | 0.00 | 0.00 | 0.00 | 78 | 1008.3 |
| 20260506014009 | 76 | 209 | 1.0 | 3.0 | 0.00 | 0.00 | 0.00 | 78 | 1008.1 |
| 20260506013512 | 76 | 222 | 1.0 | 3.0 | 0.00 | 0.00 | 0.00 | 78 | 1008.2 |
| 20260506013028 | 77 | 125 | 0.0 | 3.0 | 0.00 | 0.00 | 0.00 | 77 | 1008.1 |
| 20260506012507 | 77 | 157 | 1.0 | 2.0 | 0.00 | 0.00 | 0.00 | 77 | 1008.0 |
| 20260506012008 | 77 | 248 | 1.0 | 4.0 | 0.00 | 0.00 | 0.00 | 77 | 1007.9 |
| 20260506011531 | 77 | 163 | 1.0 | 4.0 | 0.00 | 0.00 | 0.00 | 76 | 1007.8 |
| 20260506011012 | 78 | 120 | 1.0 | 3.0 | 0.00 | 0.00 | 0.00 | 76 | 1007.8 |
| 20260506010513 | 78 | 210 | 1.0 | 4.0 | 0.00 | 0.00 | 0.00 | 76 | 1007.9 |
| 20260506010038 | 78 | 133 | 1.0 | 4.0 | 0.00 | 0.00 | 0.00 | 75 | 1007.8 |
| 20260506005506 | 79 | 167 | 1.0 | 4.0 | 0.00 | 0.00 | 0.00 | 75 | 1007.9 |
| 20260506005011 | 79 | 167 | 1.0 | 5.0 | 0.00 | 0.00 | 0.00 | 74 | 1007.8 |
| 20260506004526 | 79 | 243 | 2.0 | 5.0 | 0.00 | 0.00 | 0.00 | 73 | 1007.9 |
| 20260506004009 | 80 | 155 | 2.0 | 6.0 | 0.00 | 0.00 | 0.00 | 73 | 1008.0 |
| 20260506003509 | 80 | 159 | 2.0 | 6.0 | 0.00 | 0.00 | 0.00 | 72 | 1008.0 |
| 20260506003026 | 80 | 267 | 2.0 | 5.0 | 0.00 | 0.00 | 0.00 | 72 | 1008.1 |
| 20260506002510 | 80 | 176 | 2.0 | 4.0 | 0.00 | 0.00 | 0.00 | 72 | 1008.0 |
| 20260506002012 | 80 | 214 | 2.0 | 6.0 | 0.00 | 0.00 | 0.00 | 71 | 1008.0 |
| 20260506001528 | 81 | 127 | 1.0 | 6.0 | 0.00 | 0.00 | 0.00 | 70 | 1008.1 |
| 20260506001009 | 81 | 200 | 3.0 | 6.0 | 0.00 | 0.00 | 0.00 | 70 | 1008.1 |
| 20260506000514 | 81 | 192 | 2.0 | 8.0 | 0.00 | 0.00 | 0.00 | 70 | 1008.1 |
| 20260506000017 | 81 | 229 | 2.0 | 8.0 | 0.00 | 0.00 | 0.00 | 69 | 1008.1 |
| 20260505235508 | 81 | 243 | 2.0 | 6.0 | 0.00 | 0.00 | 0.00 | 69 | 1008.1 |
| 20260505235008 | 82 | 174 | 2.0 | 6.0 | 0.00 | 0.00 | 0.00 | 68 | 1008.1 |
| 20260505234533 | 82 | 118 | 1.0 | 7.0 | 0.00 | 0.00 | 0.00 | 68 | 1008.0 |
| 20260505234012 | 82 | 180 | 2.0 | 8.0 | 0.00 | 0.00 | 0.00 | 68 | 1008.1 |
| 20260505233509 | 82 | 227 | 3.0 | 8.0 | 0.00 | 0.00 | 0.00 | 68 | 1007.9 |
| 20260505233033 | 82 | 143 | 3.0 | 6.0 | 0.00 | 0.00 | 0.00 | 67 | 1007.8 |
| 20260505232511 | 82 | 146 | 1.0 | 4.0 | 0.00 | 0.00 | 0.00 | 67 | 1007.9 |
| 20260505232009 | 83 | 321 | 1.0 | 7.0 | 0.00 | 0.00 | 0.00 | 67 | 1007.9 |
| 20260505231531 | 83 | 203 | 2.0 | 7.0 | 0.00 | 0.00 | 0.00 | 66 | 1007.8 |
| 20260505231009 | 82 | 120 | 1.0 | 5.0 | 0.00 | 0.00 | 0.00 | 66 | 1007.8 |
| 20260505230508 | 82 | 271 | 2.0 | 5.0 | 0.00 | 0.00 | 0.00 | 66 | 1007.8 |
| 20260505230016 | 83 | 259 | 1.0 | 7.0 | 0.00 | 0.00 | 0.00 | 66 | 1007.8 |
| 20260505225508 | 82 | 152 | 2.0 | 7.0 | 0.00 | 0.00 | 0.00 | 67 | 1007.9 |
| 20260505225011 | 82 | 111 | 0.0 | 5.0 | 0.00 | 0.00 | 0.00 | 66 | 1008.0 |
| 20260505224520 | 82 | 224 | 2.0 | 5.0 | 0.00 | 0.00 | 0.00 | 66 | 1008.0 |
| 20260505224010 | 83 | 168 | 1.0 | 5.0 | 0.00 | 0.00 | 0.00 | 65 | 1008.1 |
| 20260505223516 | 83 | 235 | 2.0 | 5.0 | 0.00 | 0.00 | 0.00 | 65 | 1008.1 |
| 20260505223023 | 83 | 217 | 2.0 | 5.0 | 0.00 | 0.00 | 0.00 | 66 | 1008.1 |
| 20260505222513 | 83 | 358 | 1.0 | 4.0 | 0.00 | 0.00 | 0.00 | 64 | 1008.1 |
| 20260505222009 | 83 | 87 | 1.0 | 4.0 | 0.00 | 0.00 | 0.00 | 65 | 1008.1 |
| 20260505221526 | 83 | 240 | 2.0 | 6.0 | 0.00 | 0.00 | 0.00 | 64 | 1008.0 |
| 20260505221013 | 83 | 271 | 2.0 | 6.0 | 0.00 | 0.00 | 0.00 | 65 | 1008.0 |
| 20260505220508 | 83 | 269 | 2.0 | 6.0 | 0.00 | 0.00 | 0.00 | 64 | 1008.1 |
| 20260505220028 | 83 | 110 | 1.0 | 6.0 | 0.00 | 0.00 | 0.00 | 64 | 1008.0 |
| 20260505215509 | 84 | 33 | 2.0 | 6.0 | 0.00 | 0.00 | 0.00 | 63 | 1008.1 |
| 20260505215008 | 84 | 203 | 1.0 | 5.0 | 0.00 | 0.00 | 0.00 | 64 | 1008.1 |
| 20260505214532 | 84 | 63 | 1.0 | 6.0 | 0.00 | 0.00 | 0.00 | 64 | 1008.2 |
| 20260505214006 | 84 | 193 | 3.0 | 6.0 | 0.00 | 0.00 | 0.00 | 63 | 1008.2 |
| 20260505213507 | 85 | 169 | 1.0 | 6.0 | 0.00 | 0.00 | 0.00 | 64 | 1008.2 |
| 20260505213022 | 85 | 257 | 2.0 | 6.0 | 0.00 | 0.00 | 0.00 | 62 | 1008.2 |
| 20260505212515 | 85 | 61 | 2.0 | 6.0 | 0.00 | 0.00 | 0.00 | 64 | 1008.3 |
| 20260505212012 | 84 | 96 | 2.0 | 7.0 | 0.00 | 0.00 | 0.00 | 64 | 1008.2 |
| 20260505211526 | 84 | 170 | 2.0 | 8.0 | 0.00 | 0.00 | 0.00 | 64 | 1008.3 |
| 20260505211009 | 84 | 169 | 3.0 | 8.0 | 0.00 | 0.00 | 0.00 | 63 | 1008.3 |
| 20260505210510 | 85 | 265 | 2.0 | 8.0 | 0.00 | 0.00 | 0.00 | 62 | 1008.3 |
| 20260505210026 | 85 | 136 | 1.0 | 8.0 | 0.00 | 0.00 | 0.00 | 63 | 1008.3 |
| 20260505205510 | 85 | 174 | 2.0 | 10.0 | 0.00 | 0.00 | 0.00 | 63 | 1008.6 |
| 20260505205012 | 84 | 107 | 3.0 | 10.0 | 0.00 | 0.00 | 0.00 | 64 | 1008.5 |
| 20260505204529 | 84 | 155 | 2.0 | 9.0 | 0.00 | 0.00 | 0.00 | 63 | 1008.5 |
| 20260505204015 | 84 | 2 | 2.0 | 9.0 | 0.00 | 0.00 | 0.00 | 64 | 1008.5 |
| 20260505203511 | 84 | 103 | 2.0 | 9.0 | 0.00 | 0.00 | 0.00 | 66 | 1008.6 |
| 20260505203030 | 83 | 148 | 2.0 | 9.0 | 0.00 | 0.00 | 0.00 | 65 | 1008.7 |
| 20260505202506 | 83 | 200 | 3.0 | 11.0 | 0.00 | 0.00 | 0.00 | 66 | 1008.7 |
| 20260505202006 | 83 | 129 | 3.0 | 11.0 | 0.00 | 0.00 | 0.00 | 66 | 1008.9 |
| 20260505201528 | 83 | 117 | 3.0 | 12.0 | 0.00 | 0.00 | 0.00 | 65 | 1009.0 |
| 20260505201007 | 83 | 191 | 4.0 | 12.0 | 0.00 | 0.00 | 0.00 | 65 | 1008.9 |
| 20260505200511 | 83 | 245 | 2.0 | 9.0 | 0.00 | 0.00 | 0.00 | 68 | 1009.0 |
| 20260505200025 | 83 | 162 | 3.0 | 6.0 | 0.00 | 0.00 | 0.00 | 66 | 1009.1 |
| 20260505195513 | 82 | 153 | 2.0 | 7.0 | 0.00 | 0.00 | 0.00 | 67 | 1009.2 |
| 20260505195009 | 82 | 16 | 1.0 | 9.0 | 0.00 | 0.00 | 0.00 | 68 | 1009.3 |
| 20260505194531 | 82 | 230 | 3.0 | 9.0 | 0.00 | 0.00 | 0.00 | 69 | 1009.3 |
| 20260505194014 | 82 | 134 | 3.0 | 7.0 | 0.00 | 0.00 | 0.00 | 68 | 1009.4 |
| 20260505193509 | 82 | 191 | 3.0 | 6.0 | 0.00 | 0.00 | 0.00 | 67 | 1009.3 |
| 20260505193025 | 82 | 165 | 3.0 | 7.0 | 0.00 | 0.00 | 0.00 | 68 | 1009.3 |
| 20260505192510 | 81 | 300 | 2.0 | 7.0 | 0.00 | 0.00 | 0.00 | 69 | 1009.4 |
| 20260505192010 | 81 | 207 | 4.0 | 8.0 | 0.00 | 0.00 | 0.00 | 69 | 1009.4 |
| 20260505191522 | 81 | 176 | 2.0 | 8.0 | 0.00 | 0.00 | 0.00 | 68 | 1009.5 |
| 20260505191010 | 81 | 237 | 3.0 | 6.0 | 0.00 | 0.00 | 0.00 | 69 | 1009.5 |
| 20260505190510 | 80 | 110 | 2.0 | 11.0 | 0.00 | 0.00 | 0.00 | 69 | 1009.6 |
| 20260505190024 | 80 | 334 | 4.0 | 11.0 | 0.00 | 0.00 | 0.00 | 71 | 1009.6 |
| 20260505185510 | 79 | 160 | 4.0 | 11.0 | 0.00 | 0.00 | 0.00 | 70 | 1009.6 |
| 20260505185012 | 80 | 224 | 2.0 | 11.0 | 0.00 | 0.00 | 0.00 | 70 | 1009.8 |
| 20260505184527 | 80 | 214 | 3.0 | 10.0 | 0.00 | 0.00 | 0.00 | 70 | 1010.0 |
| 20260505184009 | 80 | 193 | 3.0 | 9.0 | 0.00 | 0.00 | 0.00 | 71 | 1010.1 |
| 20260505183508 | 80 | 186 | 1.0 | 6.0 | 0.00 | 0.00 | 0.00 | 72 | 1010.1 |
| 20260505183026 | 80 | 349 | 2.0 | 7.0 | 0.00 | 0.00 | 0.00 | 71 | 1010.3 |
| 20260505182517 | 79 | 203 | 2.0 | 7.0 | 0.00 | 0.00 | 0.00 | 72 | 1010.3 |
| 20260505182012 | 79 | 122 | 2.0 | 5.0 | 0.00 | 0.00 | 0.00 | 75 | 1010.3 |
| 20260505181527 | 77 | 307 | 2.0 | 6.0 | 0.00 | 0.00 | 0.00 | 77 | 1010.4 |
| 20260505181011 | 77 | 278 | 1.0 | 6.0 | 0.00 | 0.00 | 0.00 | 76 | 1010.5 |
| 20260505180510 | 77 | 246 | 1.0 | 6.0 | 0.00 | 0.00 | 0.00 | 76 | 1010.5 |
| 20260505180043 | 76 | 223 | 2.0 | 5.0 | 0.00 | 0.00 | 0.00 | 78 | 1010.6 |
| 20260505175511 | 76 | 314 | 2.0 | 5.0 | 0.00 | 0.00 | 0.00 | 79 | 1010.8 |
| 20260505175008 | 75 | 229 | 1.0 | 6.0 | 0.00 | 0.00 | 0.00 | 79 | 1010.7 |
| 20260505174547 | 75 | 266 | 2.0 | 6.0 | 0.00 | 0.00 | 0.00 | 81 | 1010.7 |
| 20260505174009 | 74 | 233 | 1.0 | 5.0 | 0.00 | 0.00 | 0.00 | 81 | 1010.8 |
| 20260505173510 | 74 | 340 | 2.0 | 5.0 | 0.00 | 0.00 | 0.00 | 81 | 1010.7 |
| 20260505173033 | 74 | 208 | 2.0 | 7.0 | 0.00 | 0.00 | 0.00 | 81 | 1010.9 |
| 20260505172511 | 74 | 193 | 3.0 | 7.0 | 0.00 | 0.00 | 0.00 | 82 | 1010.8 |
| 20260505172012 | 73 | 210 | 1.0 | 5.0 | 0.00 | 0.00 | 0.00 | 82 | 1010.9 |
| 20260505171528 | 74 | 239 | 1.0 | 5.0 | 0.00 | 0.00 | 0.00 | 83 | 1010.9 |
| 20260505171011 | 73 | 323 | 0.0 | 5.0 | 0.00 | 0.00 | 0.00 | 84 | 1011.0 |
| 20260505170510 | 72 | 227 | 1.0 | 6.0 | 0.00 | 0.00 | 0.00 | 85 | 1010.9 |
| 20260505170028 | 72 | 248 | 1.0 | 6.0 | 0.00 | 0.00 | 0.00 | 85 | 1010.9 |
| 20260505165513 | 72 | 257 | 1.0 | 4.0 | 0.00 | 0.00 | 0.00 | 86 | 1010.9 |
| 20260505165009 | 72 | 110 | 0.0 | 5.0 | 0.00 | 0.00 | 0.00 | 86 | 1010.7 |
| 20260505164524 | 71 | 179 | 1.0 | 5.0 | 0.00 | 0.00 | 0.00 | 87 | 1010.7 |
| 20260505164009 | 71 | 167 | 2.0 | 5.0 | 0.00 | 0.00 | 0.00 | 87 | 1010.8 |
| 20260505163507 | 71 | 158 | 1.0 | 4.0 | 0.00 | 0.00 | 0.00 | 88 | 1010.8 |
| 20260505163025 | 70 | 178 | 1.0 | 4.0 | 0.00 | 0.00 | 0.00 | 89 | 1010.9 |
| 20260505162509 | 70 | 296 | 1.0 | 6.0 | 0.00 | 0.00 | 0.00 | 89 | 1010.8 |
| 20260505162010 | 70 | 117 | 1.0 | 7.0 | 0.00 | 0.00 | 0.00 | 90 | 1010.7 |
| 20260505161526 | 69 | 147 | 2.0 | 7.0 | 0.00 | 0.00 | 0.00 | 90 | 1010.7 |
| 20260505161011 | 69 | 280 | 1.0 | 6.0 | 0.00 | 0.00 | 0.00 | 91 | 1010.6 |
| 20260505160510 | 69 | 276 | 2.0 | 7.0 | 0.00 | 0.00 | 0.00 | 92 | 1010.6 |
| 20260505153028 | 67 | 263 | 3.0 | 6.0 | 0.00 | 0.00 | 0.00 | 95 | 1010.4 |
| 20260505152508 | 67 | 344 | 2.0 | 6.0 | 0.00 | 0.00 | 0.00 | 95 | 1010.5 |
| 20260505152010 | 67 | 227 | 1.0 | 7.0 | 0.00 | 0.00 | 0.00 | 95 | 1010.5 |
| 20260505151526 | 66 | 255 | 3.0 | 7.0 | 0.00 | 0.00 | 0.00 | 95 | 1010.6 |
| 20260505151010 | 66 | 125 | 0.0 | 10.0 | 0.00 | 0.00 | 0.00 | 96 | 1010.7 |
| 20260505150515 | 66 | 213 | 2.0 | 10.0 | 0.00 | 0.00 | 0.00 | 96 | 1010.7 |